User: anonymous   Login
Location: Brainerd
(46.3580°N, 94.2010°W)
Time: 13:28:00
(UTC-06:00)
Language:

CZ-4C R/B - Orbit

View from above orbital plane
View from above orbital plane
View from above satellite
View from above satellite

Ground track
Ground track

The orbit data is extracted from the following two-line orbital elements,

1 32290U 07055B   17054.93122284 +.00004415 +00000-0 +12688-3 0  9993
2 32290 097.5245 159.1251 0068116 174.4847 185.7161 15.34053709514377
Epoch (UTC): 23 February 2017 22:20:57
Eccentricity: 0.0068116
inclination: 97.5245°
perigee height: 417 km
apogee height: 510 km
right ascension of ascending node: 159.1251°
argument of perigee: 174.4847°
revolutions per day: 15.34053709
mean anomaly at epoch: 185.7161°
orbit number at epoch: 51437

The dashed part of the orbit path shows where the satellite is in the earth's shadow,  

DLR